TimePDT,TemperatureF,Dew PointF,Humidity,Sea Level PressureIn,VisibilityMPH,Wind Direction,Wind SpeedMPH,Gust SpeedMPH,PrecipitationIn,Events,Conditions,WindDirDegrees,DateUTC
1:53 AM,66.0,55.0,68,29.93,10.0,Calm,Calm,-,N/A,,Clear,0,2011-10-03 08:53:00
2:53 AM,64.9,55.0,70,29.92,10.0,Calm,Calm,-,N/A,,Clear,0,2011-10-03 09:53:00
3:53 AM,64.0,55.9,75,29.91,10.0,Calm,Calm,-,N/A,,Clear,0,2011-10-03 10:53:00
4:53 AM,64.0,55.0,73,29.91,10.0,Calm,Calm,-,N/A,,Clear,0,2011-10-03 11:53:00
5:53 AM,64.0,55.9,75,29.92,10.0,East,3.5,-,N/A,,Clear,90,2011-10-03 12:53:00
7:53 AM,66.0,57.0,73,29.94,10.0,ESE,3.5,-,N/A,,Clear,110,2011-10-03 14:53:00
8:53 AM,69.1,57.9,68,29.95,10.0,Calm,Calm,-,N/A,,Scattered Clouds,0,2011-10-03 15:53:00
9:53 AM,72.0,57.9,61,29.95,10.0,Calm,Calm,-,N/A,,Unknown,0,2011-10-03 16:53:00
11:53 AM,80.1,55.0,42,29.93,10.0,Variable,4.6,-,N/A,,Clear,0,2011-10-03 18:53:00
12:53 PM,79.0,57.0,47,29.93,10.0,SSW,8.1,-,N/A,,Clear,210,2011-10-03 19:53:00
1:53 PM,80.1,54.0,40,29.91,10.0,SSW,8.1,-,N/A,,Partly Cloudy,210,2011-10-03 20:53:00
2:53 PM,80.1,53.1,39,29.90,10.0,Variable,4.6,-,N/A,,Partly Cloudy,0,2011-10-03 21:53:00
3:53 PM,80.1,48.9,34,29.89,10.0,Variable,4.6,-,N/A,,Clear,0,2011-10-03 22:53:00
4:53 PM,75.9,50.0,40,29.89,10.0,West,8.1,-,N/A,,Clear,270,2011-10-03 23:53:00
6:53 PM,69.1,48.0,47,29.91,10.0,West,8.1,-,N/A,,Clear,270,2011-10-04 01:53:00
7:53 PM,66.9,53.1,61,29.92,10.0,Variable,3.5,-,N/A,,Clear,0,2011-10-04 02:53:00
8:53 PM,66.9,51.1,57,29.92,10.0,Calm,Calm,-,N/A,,Clear,0,2011-10-04 03:53:00
9:53 PM,66.0,52.0,60,29.92,10.0,Calm,Calm,-,N/A,,Clear,0,2011-10-04 04:53:00
10:53 PM,64.9,55.0,70,29.93,10.0,Calm,Calm,-,N/A,,Clear,0,2011-10-04 05:53:00
11:53 PM,64.0,55.0,73,29.94,10.0,SW,3.5,-,N/A,,Clear,230,2011-10-04 06:53:00